Showing default

HORYU 4, 41340

Orbit data source: Space-Track

HORYU 4, 41340 is a payload satellite owned by Kyutech (JP) in LEO that was launched on Wed, 17 Feb 2016 UTC via an H-IIA 202 launch vehicle from the Tanegashima Space Center (TNSTA). Payload-class satellites include a variety of spacecraft equipped with specific instruments for various scientific and technological missions. These include communications satellites like Starlink; space stations such as the ISS; scientific satellites like the Hubble; Earth observation satellites from companies like Planet Labs, Umbra, and HawkEye 360; GPS; miniature CubeSats for education and research; and military/defense satellites.

Not visible in the next 10 days
Identifier
41340, 2016-012D
Orbit
LEO
Country
Flag of JPJP / JPN
Related business
Manufacturer
Kyutech
Mission
Operational Amateur Technology
Bus & Motor
HORYU, Unknown motor
Mass
10 kg wet, 10 kg dry
Launch date (UTC)
2016-02-17 (10 years ago)
Launch vehicle
H-IIA 202
Launch site
Tanegashima Space Center (TNSTA)
Object type
Payload
Rocket body
Debris
Shape & HBR
Box, 0.2 m
Radar Cross Section
0.290 m², Medium (>0.1 m² and < 1m²)

Expand to show TLE details & history
Last TLE update: 12 hours ago

TLE from 12 hours ago
0 HORYU 4
1 41340U 16012D   26124.06960086  .00162846  00000-0  10035-2 0  9990
2 41340  30.9901  37.2237 0006262 308.9775  51.0323 15.75564117563814
Epoch: 2026-05-04T01:40Z
TLE epoch observation values (Epoch: 2026-05-04T01:40:13.514Z)
Latitude
-0.00001°
Longitude
150.20329°
Altitude
338.848 km
Speed
7.71 km/s
True Right ascension
02h 28m 53s
True Declination
0° 00' 00"
Sunlit
Object was in daylight at epoch
Visualization orbit readout
Latitude
Unknown
Longitude
Unknown
Altitude
Unknown
Speed
Unknown
Apparent Right ascension
Unknown
Apparent Declination
Unknown
Sunlit
N/A
Visualization observer readout
Local Sidereal Time
21:19:07
Azimuth
Unknown
Elevation
Unknown
Doppler factor
Unknown
Orbital elements
Apogee altitude
351.19 km
Perigee altitude
342.768 km
Semi-major axis
6,725.116 km
Eccentricity
0.00063
Inclination
30.9901°
RAAN
37.2237°
Arg. of periapsis
308.9775°
True anomaly
51.08812°
Mean anomaly
51.0323°
Eccentric anomaly
51.06021°
Mean motion
3.93544 °/min
Orbital period
91.48 mins
BSTAR
0.0010035
Loading maneuver chart data...
Computing Atmospheric mass density...
Loading historical data...
Loading historical data...
Loading historical data...
Loading historical data...
Loading historical data...
Loading historical data...
Loading historical data...

Documentation

Showing up to 5 results
|